Weather History for Syracuse, NY

Change the Weather History Date:

Sunday, April 24, 2011

  Actual Average Record
Temperature  
Mean Temperature 51 °F 50 °F  
Max Temperature 58 °F 61 °F 81 °F (1960)
Min Temperature 44 °F 40 °F 23 °F (1919)
Degree Days  
Heating Degree Days 14 15  
Month to date heating degree days 436 466  
Since 1 July heating degree days 6404 6254  
Cooling Degree Days 0 0  
Month to date cooling degree days 4 0  
Year to date cooling degree days 4 0  
Growing Degree Days 2 (Base 50)    
Moisture  
Dew Point 44 °F    
Average Humidity 79    
Maximum Humidity 92    
Minimum Humidity 66    
Precipitation  
Precipitation 0.04 in 0.10 in 0.74 in (1966)
Month to date precipitation 5.08 2.58  
Year to date precipitation 12.02 10.10  
Snow  
Snow 0.00 in 0.00 in 0.80 in (1971)
Month to date snowfall 0.4 3.5  
Since 1 July snowfall 179.0 123.4  
Snow Depth 0.00 in    
Sea Level Pressure  
Sea Level Pressure 30.02 in    
Wind  
Wind Speed 3 mph (NW)    
Max Wind Speed 16 mph    
Max Gust Speed 21 mph    
Visibility 10 miles    
Events Rain    
T = Trace of Precipitation, MM = Missing Value Source: NWS Daily Summary

Daily Weather History Graph

Daily Weather History Graph

Search for Another Location

Airport:

Trip Planner

Search our weather history database for the weather conditions in past years. The results will help you decide how hot, cold, wet, or windy it might be!

Date:

Astronomy

Apr. 24, 2011 Rise Set
Actual Time 6:08 AM EDT 7:57 PM EDT
Civil Twilight 5:38 AM EDT 8:27 PM EDT
Nautical Twilight 5:01 AM EDT 9:04 PM EDT
Astronomical Twilight 4:21 AM EDT 9:45 PM EDT
Moon 1:52 AM EDT (4/24) 11:46 AM EDT (4/24)
Length of Visible Light 14h 49m
Length of Day
13h 48m
Waning Gibbous, 55% of the Moon is Illuminated
Apr 24
Waning Gibbous
Apr 24
Last Quarter
May 3
New
May 10
First Quarter
May 17
Full

Hourly Weather History & Observations

Time (EDT) Temp. Dew Point Humidity Pressure Visibility Wind Dir Wind Speed Gust Speed Precip Events Conditions
12:35 AM 59.0 °F 53.6 °F 82% 29.87 in 10.0 mi NNW 10.4 mph - N/A   Overcast
12:54 AM 59.0 °F 51.1 °F 75% 29.88 in 10.0 mi North 13.8 mph - N/A   Overcast
1:54 AM 55.0 °F 45.0 °F 69% 29.91 in 10.0 mi NNW 6.9 mph - N/A   Overcast
2:54 AM 53.1 °F 45.0 °F 74% 29.94 in 10.0 mi WNW 4.6 mph - N/A   Overcast
3:54 AM 50.0 °F 43.0 °F 77% 29.96 in 10.0 mi West 5.8 mph - N/A   Mostly Cloudy
4:54 AM 51.1 °F 42.1 °F 71% 29.97 in 10.0 mi NNW 8.1 mph - N/A   Mostly Cloudy
5:54 AM 48.0 °F 41.0 °F 77% 30.00 in 10.0 mi WNW 4.6 mph - N/A   Scattered Clouds
6:54 AM 48.9 °F 42.1 °F 77% 30.01 in 10.0 mi West 6.9 mph - N/A   Mostly Cloudy
7:54 AM 50.0 °F 42.1 °F 74% 30.03 in 10.0 mi West 8.1 mph - N/A   Overcast
8:54 AM 51.1 °F 41.0 °F 68% 30.02 in 10.0 mi West 6.9 mph - N/A   Overcast
9:54 AM 51.1 °F 41.0 °F 68% 30.04 in 10.0 mi WNW 4.6 mph - 0.00 in Rain Light Rain
10:54 AM 51.1 °F 42.1 °F 71% 30.06 in 10.0 mi North 4.6 mph - 0.00 in Rain Light Rain
11:54 AM 50.0 °F 44.1 °F 80% 30.06 in 10.0 mi NNE 4.6 mph - 0.02 in Rain Light Rain
12:54 PM 51.1 °F 44.1 °F 77% 30.05 in 10.0 mi Calm Calm - 0.01 in Rain Light Rain
1:54 PM 52.0 °F 45.0 °F 77% 30.05 in 10.0 mi Calm Calm - 0.00 in Rain Light Rain
2:54 PM 52.0 °F 45.0 °F 77% 30.03 in 10.0 mi NNE 3.5 mph - 0.01 in   Overcast
3:44 PM 51.8 °F 44.6 °F 76% 30.04 in 10.0 mi North 5.8 mph - N/A   Overcast
3:54 PM 52.0 °F 45.0 °F 77% 30.03 in 10.0 mi East 4.6 mph - N/A   Overcast
4:54 PM 52.0 °F 43.0 °F 71% 30.03 in 10.0 mi Calm Calm - N/A   Overcast
5:54 PM 52.0 °F 43.0 °F 71% 30.03 in 10.0 mi Calm Calm - 0.00 in   Overcast
6:06 PM 51.8 °F 42.8 °F 71% 30.02 in 10.0 mi Calm Calm - N/A   Overcast
6:54 PM 53.1 °F 43.0 °F 69% 30.03 in 10.0 mi Calm Calm - N/A   Overcast
7:54 PM 52.0 °F 43.0 °F 71% 30.04 in 10.0 mi Calm Calm - N/A   Overcast
8:54 PM 50.0 °F 43.0 °F 77% 30.04 in 10.0 mi Calm Calm - N/A   Mostly Cloudy
9:54 PM 46.9 °F 43.0 °F 86% 30.06 in 10.0 mi Calm Calm - N/A   Mostly Cloudy
10:54 PM 44.1 °F 42.1 °F 93% 30.07 in 10.0 mi Calm Calm - N/A   Mostly Cloudy
11:34 PM 44.6 °F 42.8 °F 93% 30.07 in 2.5 mi Calm Calm - N/A   Scattered Clouds
11:41 PM 44.6 °F 42.8 °F 93% 30.07 in 10.0 mi Calm Calm - N/A   Scattered Clouds
11:54 PM 45.0 °F 43.0 °F 93% 30.07 in 6.0 mi Calm Calm - N/A   Mostly Cloudy